When you browse on this site, cookies collect data to enhance your experience and personalize the content and advertising you see.
Visit our Privacy Policy to learn more. By continuing to use the site, you agree to this use of cookies and data.
  • In Schweiz
  • Länderverzeichnis
  • Für 7 Tage
  • Wassertemperatur
  • Wetterkarte
  • Widgets
  • user-avatar
    Anmelden

    Stündliche Wetter Lampeter

    Heute, 2 Juni, Dienstag

    Zeit Temperatur Niederschläge Wind Luftdruck Luftfeuchtigkeit
    00:00 +13°C° 0 mm 1 m/S 762 mmHg 86%
    01:00 +13°C° 0 mm 1 m/S 762 mmHg 87%
    02:00 +13°C° 0 mm 1 m/S 762 mmHg 87%
    03:00 +12°C° 0 mm 1 m/S 762 mmHg 88%
    04:00 +13°C° 0 mm 1 m/S 761 mmHg 86%
    05:00 +14°C° 0 mm 1 m/S 761 mmHg 84%
    06:00 +15°C° 0 mm 1 m/S 761 mmHg 81%
    07:00 +18°C° 0 mm 1 m/S 761 mmHg 76%
    08:00 +18°C° 0 mm 2 m/S 760 mmHg 71%
    09:00 +20°C° 0 mm 2 m/S 760 mmHg 66%
    10:00 +20°C° 0.1 mm 2 m/S 760 mmHg 64%
    11:00 +21°C° 0.1 mm 2 m/S 759 mmHg 62%
    12:00 +21°C° 0.1 mm 2 m/S 759 mmHg 59%
    13:00 +21°C° 0.3 mm 3 m/S 758 mmHg 64%
    14:00 +20°C° 0.3 mm 3 m/S 758 mmHg 69%
    15:00 +19°C° 0.3 mm 3 m/S 757 mmHg 73%
    16:00 +17°C° 0.6 mm 3 m/S 757 mmHg 79%
    17:00 +15°C° 0.6 mm 4 m/S 757 mmHg 86%
    18:00 +13°C° 0.6 mm 4 m/S 757 mmHg 92%
    19:00 +13°C° 0.8 mm 4 m/S 756 mmHg 94%
    20:00 +12°C° 0.8 mm 4 m/S 756 mmHg 95%
    21:00 +11°C° 0.8 mm 4 m/S 756 mmHg 97%
    22:00 +10°C° 1.4 mm 5 m/S 756 mmHg 96%
    23:00 +10°C° 1.4 mm 5 m/S 756 mmHg 95%

    Morgen, 3 Juni, Mittwoch

    Zeit Temperatur Niederschläge Wind Luftdruck Luftfeuchtigkeit
    00:00 +9°C° 1.4 mm 6 m/S 756 mmHg 94%
    01:00 +9°C° 0.6 mm 6 m/S 755 mmHg 93%
    02:00 +8°C° 0.6 mm 6 m/S 755 mmHg 91%
    03:00 +7°C° 0.6 mm 6 m/S 755 mmHg 89%
    04:00 +7°C° 0.2 mm 6 m/S 755 mmHg 88%
    05:00 +7°C° 0.2 mm 6 m/S 755 mmHg 86%
    06:00 +7°C° 0.2 mm 6 m/S 756 mmHg 84%
    07:00 +8°C° 0 mm 6 m/S 756 mmHg 81%
    08:00 +9°C° 0 mm 6 m/S 756 mmHg 78%
    09:00 +10°C° 0 mm 5 m/S 756 mmHg 74%
    10:00 +10°C° 0.1 mm 6 m/S 756 mmHg 75%
    11:00 +10°C° 0.1 mm 6 m/S 756 mmHg 75%
    12:00 +11°C° 0.1 mm 6 m/S 756 mmHg 76%
    13:00 +11°C° 0 mm 6 m/S 755 mmHg 74%
    14:00 +11°C° 0 mm 6 m/S 755 mmHg 73%
    15:00 +12°C° 0 mm 5 m/S 755 mmHg 72%
    16:00 +12°C° 0 mm 5 m/S 755 mmHg 72%
    17:00 +11°C° 0 mm 4 m/S 755 mmHg 72%
    18:00 +11°C° 0 mm 4 m/S 754 mmHg 72%
    19:00 +10°C° 0 mm 3 m/S 754 mmHg 74%
    20:00 +9°C° 0 mm 3 m/S 754 mmHg 77%
    21:00 +8°C° 0 mm 2 m/S 754 mmHg 79%
    22:00 +8°C° 0 mm 2 m/S 754 mmHg 79%
    23:00 +7°C° 0 mm 2 m/S 754 mmHg 80%

    übermorgen, 4 Juni, Donnerstag

    Zeit Temperatur Niederschläge Wind Luftdruck Luftfeuchtigkeit
    00:00 +8°C° 0 mm 1 m/S 753 mmHg 80%
    01:00 +7°C° 0 mm 1 m/S 753 mmHg 81%
    02:00 +7°C° 0 mm 1 m/S 752 mmHg 82%
    03:00 +7°C° 0 mm 1 m/S 751 mmHg 83%
    04:00 +7°C° 0 mm 1 m/S 751 mmHg 81%
    05:00 +8°C° 0 mm 1 m/S 750 mmHg 79%
    06:00 +8°C° 0 mm 2 m/S 749 mmHg 77%
    07:00 +9°C° 0 mm 2 m/S 749 mmHg 75%
    08:00 +10°C° 0 mm 3 m/S 748 mmHg 74%
    09:00 +11°C° 0 mm 3 m/S 748 mmHg 72%
    10:00 +11°C° 0.2 mm 3 m/S 748 mmHg 74%
    11:00 +11°C° 0.2 mm 3 m/S 747 mmHg 77%
    12:00 +11°C° 0.2 mm 4 m/S 747 mmHg 79%
    13:00 +11°C° 0.1 mm 4 m/S 747 mmHg 76%
    14:00 +11°C° 0.1 mm 3 m/S 746 mmHg 73%
    15:00 +12°C° 0.1 mm 3 m/S 746 mmHg 70%
    16:00 +11°C° 0.1 mm 3 m/S 746 mmHg 70%
    17:00 +11°C° 0.1 mm 3 m/S 746 mmHg 71%
    18:00 +11°C° 0.1 mm 3 m/S 746 mmHg 71%
    19:00 +9°C° 0.1 mm 3 m/S 746 mmHg 75%
    20:00 +8°C° 0.1 mm 3 m/S 746 mmHg 79%
    21:00 +7°C° 0.1 mm 2 m/S 746 mmHg 83%
    22:00 +6°C° 0 mm 2 m/S 746 mmHg 83%
    23:00 +5°C° 0 mm 2 m/S 746 mmHg 84%

    5 Juni, Freitag

    Zeit Temperatur Niederschläge Wind Luftdruck Luftfeuchtigkeit
    00:00 +4°C° 0 mm 2 m/S 746 mmHg 85%
    01:00 +4°C° 0 mm 2 m/S 745 mmHg 85%
    02:00 +4°C° 0 mm 2 m/S 745 mmHg 84%
    03:00 +2°C° 0 mm 3 m/S 745 mmHg 84%
    04:00 +3°C° 0 mm 3 m/S 745 mmHg 82%
    05:00 +4°C° 0 mm 3 m/S 745 mmHg 80%
    06:00 +5°C° 0 mm 4 m/S 744 mmHg 77%
    07:00 +7°C° 0 mm 4 m/S 744 mmHg 71%
    08:00 +8°C° 0 mm 5 m/S 744 mmHg 65%
    09:00 +9°C° 0 mm 5 m/S 744 mmHg 58%
    10:00 +10°C° 0.1 mm 5 m/S 743 mmHg 58%
    11:00 +10°C° 0.1 mm 6 m/S 743 mmHg 59%
    12:00 +11°C° 0.1 mm 6 m/S 743 mmHg 59%
    13:00 +11°C° 0.3 mm 6 m/S 743 mmHg 61%
    14:00 +11°C° 0.3 mm 6 m/S 742 mmHg 63%
    15:00 +11°C° 0.3 mm 6 m/S 742 mmHg 65%
    16:00 +11°C° 0.4 mm 6 m/S 742 mmHg 66%
    17:00 +10°C° 0.4 mm 6 m/S 742 mmHg 68%
    18:00 +10°C° 0.4 mm 6 m/S 742 mmHg 70%
    19:00 +8°C° 0.1 mm 6 m/S 742 mmHg 71%
    20:00 +7°C° 0.1 mm 6 m/S 742 mmHg 72%
    21:00 +4°C° 0.1 mm 6 m/S 742 mmHg 72%
    22:00 +4°C° 0 mm 6 m/S 742 mmHg 74%
    23:00 +3°C° 0 mm 6 m/S 742 mmHg 76%

    6 Juni, Samstag

    Zeit Temperatur Niederschläge Wind Luftdruck Luftfeuchtigkeit
    00:00 +3°C° 0 mm 6 m/S 742 mmHg 77%
    01:00 +3°C° 0.1 mm 7 m/S 742 mmHg 79%
    02:00 +3°C° 0.1 mm 7 m/S 741 mmHg 80%
    03:00 +3°C° 0.1 mm 7 m/S 741 mmHg 81%
    04:00 +4°C° 0.3 mm 8 m/S 741 mmHg 82%
    05:00 +4°C° 0.3 mm 8 m/S 741 mmHg 82%
    06:00 +3°C° 0.3 mm 9 m/S 741 mmHg 83%
    07:00 +5°C° 0.1 mm 9 m/S 741 mmHg 79%
    08:00 +6°C° 0.1 mm 9 m/S 742 mmHg 76%
    09:00 +7°C° 0.1 mm 9 m/S 742 mmHg 73%
    10:00 +7°C° 0 mm 9 m/S 742 mmHg 70%
    11:00 +8°C° 0 mm 9 m/S 743 mmHg 67%
    12:00 +10°C° 0 mm 9 m/S 743 mmHg 64%
    13:00 +10°C° 0 mm 9 m/S 743 mmHg 63%
    14:00 +10°C° 0 mm 9 m/S 743 mmHg 62%
    15:00 +10°C° 0 mm 9 m/S 743 mmHg 61%
    16:00 +10°C° 0 mm 9 m/S 743 mmHg 64%
    17:00 +8°C° 0 mm 9 m/S 743 mmHg 67%
    18:00 +7°C° 0 mm 9 m/S 743 mmHg 70%
    19:00 +7°C° 0 mm 9 m/S 743 mmHg 70%
    20:00 +6°C° 0 mm 9 m/S 743 mmHg 70%
    21:00 +6°C° 0 mm 8 m/S 743 mmHg 70%
    22:00 +6°C° 0 mm 8 m/S 743 mmHg 72%
    23:00 +6°C° 0 mm 8 m/S 743 mmHg 75%

    7 Juni, Sonntag

    Zeit Temperatur Niederschläge Wind Luftdruck Luftfeuchtigkeit
    00:00 +6°C° 0 mm 8 m/S 743 mmHg 77%
    01:00 +6°C° 0.1 mm 8 m/S 743 mmHg 78%
    02:00 +6°C° 0.1 mm 8 m/S 743 mmHg 78%
    03:00 +6°C° 0.1 mm 8 m/S 743 mmHg 79%
    04:00 +7°C° 0 mm 9 m/S 743 mmHg 79%
    05:00 +7°C° 0 mm 9 m/S 743 mmHg 79%
    06:00 +7°C° 0 mm 9 m/S 743 mmHg 79%
    07:00 +8°C° 0 mm 9 m/S 743 mmHg 77%
    08:00 +8°C° 0 mm 9 m/S 743 mmHg 76%
    09:00 +8°C° 0 mm 10 m/S 744 mmHg 75%
    10:00 +8°C° 0.1 mm 10 m/S 744 mmHg 77%
    11:00 +8°C° 0.1 mm 9 m/S 744 mmHg 79%
    12:00 +8°C° 0.1 mm 9 m/S 744 mmHg 81%
    13:00 +8°C° 0 mm 9 m/S 744 mmHg 81%
    14:00 +8°C° 0 mm 9 m/S 744 mmHg 80%
    15:00 +8°C° 0 mm 9 m/S 744 mmHg 79%
    16:00 +7°C° 0 mm 9 m/S 744 mmHg 79%
    17:00 +7°C° 0 mm 9 m/S 744 mmHg 79%
    18:00 +7°C° 0 mm 8 m/S 744 mmHg 79%
    19:00 +7°C° 0.1 mm 8 m/S 744 mmHg 78%
    20:00 +7°C° 0.1 mm 8 m/S 744 mmHg 77%
    21:00 +6°C° 0.1 mm 9 m/S 744 mmHg 76%
    22:00 +6°C° 0.6 mm 8 m/S 744 mmHg 82%
    23:00 +6°C° 0.6 mm 8 m/S 743 mmHg 88%
    Mehr zeigen